Location: Izdebno
(52.6670°N, 16.2170°E)
Time: 09:27:03
(UTC+01:00)

SR - Visible Passes

Search period start: 26 February 2024 00:00
Search period end: 07 March 2024 00:00
Orbit: 574 x 868 km, 66.7° (Epoch: 25 February)

Date Brightness Start Highest point End Pass type
(mag) Time Alt. Az. Time Alt. Az. Time Alt. Az.
26 Feb ? 18:46:01 10° NW 18:49:58 19° N 18:53:45 10° NE visible
26 Feb ? 20:29:41 10° NNW 20:33:48 21° NNE 20:33:57 21° NNE visible
26 Feb ? 22:11:48 10° NW 22:13:12 18° NNW 22:13:12 18° NNW visible
27 Feb ? 19:37:26 10° NW 19:41:15 19° N 19:43:29 15° NE visible
27 Feb ? 21:19:57 10° NNW 21:22:44 25° N 21:22:44 25° N visible
27 Feb ? 23:01:58 10° NW 23:01:59 10° NW 23:01:59 10° NW visible
28 Feb ? 18:44:55 10° NW 18:48:40 18° N 18:52:17 10° NE visible
28 Feb ? 20:28:01 10° NNW 20:32:16 25° NNE 20:32:16 25° NNE visible
28 Feb ? 22:10:01 10° NW 22:11:31 19° NW 22:11:31 19° NW visible
29 Feb ? 19:35:57 10° NNW 19:39:56 20° NNE 19:41:49 17° NE visible
29 Feb ? 21:18:08 10° NW 21:21:04 29° NNW 21:21:04 29° NNW visible
01 Mar ? 18:43:38 10° NW 18:47:23 18° N 18:50:56 10° NE visible
01 Mar ? 20:26:16 10° NNW 20:30:37 30° NNE 20:30:37 30° NNE visible
01 Mar ? 22:08:15 10° NW 22:09:53 20° NW 22:09:53 20° NW visible
02 Mar ? 19:34:19 10° NNW 19:38:33 23° NNE 19:40:11 20° NE visible
02 Mar ? 21:16:19 10° NW 21:19:26 34° NNW 21:19:26 34° NNW visible
03 Mar ? 18:42:12 10° NW 18:46:03 19° NNE 18:49:42 10° ENE visible
03 Mar ? 20:24:27 10° NNW 20:29:02 39° NNE 20:29:02 39° NNE visible
03 Mar ? 22:06:34 10° NW 22:08:17 20° NW 22:08:17 20° NW visible
04 Mar ? 19:32:34 10° NNW 19:37:06 28° NNE 19:38:37 24° ENE visible
04 Mar ? 21:14:32 10° NW 21:17:53 40° NW 21:17:53 40° NW visible
05 Mar ? 18:40:34 10° NNW 18:44:41 22° NNE 18:48:15 11° ENE visible
05 Mar ? 20:22:37 10° NW 20:27:30 55° NNE 20:27:30 55° NNE visible
05 Mar ? 22:05:01 10° NW 22:06:46 19° WNW 22:06:46 19° WNW visible
06 Mar ? 19:30:45 10° NNW 19:35:33 36° NE 19:37:10 28° ENE visible
06 Mar ? 21:12:47 10° NW 21:16:25 42° WNW 21:16:25 42° WNW visible
